TimeCDT,TemperatureF,Dew PointF,Humidity,Sea Level PressureIn,VisibilityMPH,Wind Direction,Wind SpeedMPH,Gust SpeedMPH,PrecipitationIn,Events,Conditions,WindDirDegrees,DateUTC
12:15 AM,22.1,7.9,54,30.34,10.0,NNW,3.5,-,N/A,,Clear,340,2013-03-20 05:15:00
12:35 AM,21.6,8.6,57,30.35,10.0,Calm,Calm,-,N/A,,Clear,0,2013-03-20 05:35:00
12:55 AM,20.5,9.0,61,30.35,10.0,NNW,4.6,-,N/A,,Clear,340,2013-03-20 05:55:00
1:15 AM,20.7,10.0,64,30.35,10.0,NNW,3.5,-,N/A,,Clear,330,2013-03-20 06:15:00
1:35 AM,19.8,10.4,67,30.35,10.0,Calm,Calm,-,N/A,,Clear,0,2013-03-20 06:35:00
1:55 AM,18.3,10.2,71,30.36,10.0,WNW,4.6,-,N/A,,Clear,290,2013-03-20 06:55:00
2:15 AM,17.6,9.9,72,30.37,10.0,WSW,8.1,-,N/A,,Clear,250,2013-03-20 07:15:00
2:35 AM,16.7,9.5,73,30.37,10.0,WSW,4.6,-,N/A,,Clear,250,2013-03-20 07:35:00
2:55 AM,17.4,9.5,71,30.37,10.0,Calm,Calm,-,N/A,,Clear,0,2013-03-20 07:55:00
3:15 AM,16.5,8.1,69,30.37,10.0,WNW,4.6,-,N/A,,Clear,290,2013-03-20 08:15:00
3:35 AM,16.9,8.1,68,30.37,10.0,West,3.5,-,N/A,,Clear,280,2013-03-20 08:35:00
3:55 AM,15.8,7.5,70,30.35,10.0,Calm,Calm,-,N/A,,Clear,0,2013-03-20 08:55:00
4:15 AM,14.2,7.0,73,30.35,10.0,West,3.5,-,N/A,,Clear,270,2013-03-20 09:15:00
4:35 AM,15.4,6.4,68,30.34,10.0,WNW,3.5,-,N/A,,Clear,290,2013-03-20 09:35:00
4:55 AM,13.1,5.7,72,30.33,10.0,West,4.6,-,N/A,,Clear,280,2013-03-20 09:55:00
5:15 AM,14.0,5.9,70,30.33,10.0,West,5.8,-,N/A,,Clear,270,2013-03-20 10:15:00
5:35 AM,14.7,6.1,69,30.32,10.0,Calm,Calm,-,N/A,,Clear,0,2013-03-20 10:35:00
5:55 AM,13.5,5.7,71,30.33,10.0,West,3.5,-,N/A,,Clear,260,2013-03-20 10:55:00
6:15 AM,12.6,5.7,74,30.32,10.0,Calm,Calm,-,N/A,,Clear,0,2013-03-20 11:15:00
6:35 AM,12.0,4.8,73,30.31,10.0,West,3.5,-,N/A,,Clear,270,2013-03-20 11:35:00
6:55 AM,11.3,5.0,76,30.31,10.0,Calm,Calm,-,N/A,,Clear,0,2013-03-20 11:55:00
7:15 AM,11.5,4.8,75,30.31,10.0,West,4.6,-,N/A,,Clear,270,2013-03-20 12:15:00
7:35 AM,11.1,4.5,75,30.30,10.0,Calm,Calm,-,N/A,,Clear,0,2013-03-20 12:35:00
7:55 AM,12.2,5.0,73,30.31,10.0,Calm,Calm,-,N/A,,Clear,0,2013-03-20 12:55:00
8:15 AM,12.4,5.5,74,30.31,10.0,WSW,3.5,-,N/A,,Clear,250,2013-03-20 13:15:00
8:35 AM,15.4,8.2,73,30.31,10.0,Calm,Calm,-,N/A,,Clear,0,2013-03-20 13:35:00
8:55 AM,17.1,10.0,74,30.30,10.0,Calm,Calm,-,N/A,,Clear,0,2013-03-20 13:55:00
9:15 AM,21.2,12.0,68,30.30,10.0,Calm,Calm,-,N/A,,Clear,0,2013-03-20 14:15:00
9:35 AM,23.4,13.6,66,30.30,10.0,Calm,Calm,-,N/A,,Clear,0,2013-03-20 14:35:00
9:55 AM,26.6,9.7,49,30.29,10.0,WNW,4.6,-,N/A,,Clear,300,2013-03-20 14:55:00
10:15 AM,29.1,4.6,35,30.28,10.0,Calm,Calm,-,N/A,,Clear,0,2013-03-20 15:15:00
10:35 AM,29.8,1.8,30,30.27,10.0,Calm,Calm,-,N/A,,Clear,0,2013-03-20 15:35:00
10:55 AM,31.5,1.8,28,30.26,10.0,West,3.5,-,N/A,,Clear,280,2013-03-20 15:55:00
11:15 AM,32.5,1.8,27,30.26,10.0,SSW,6.9,-,N/A,,Clear,210,2013-03-20 16:15:00
11:35 AM,34.5,3.0,27,30.25,10.0,SW,4.6,-,N/A,,Clear,230,2013-03-20 16:35:00
11:55 AM,34.7,4.6,28,30.23,10.0,SW,6.9,-,N/A,,Clear,230,2013-03-20 16:55:00
12:15 PM,36.3,5.4,27,30.22,10.0,SW,6.9,-,N/A,,Clear,220,2013-03-20 17:15:00
12:35 PM,37.2,6.6,28,30.21,10.0,SSW,10.4,-,N/A,,Clear,210,2013-03-20 17:35:00
12:55 PM,38.3,7.2,28,30.19,10.0,SSW,5.8,19.6,N/A,,Clear,210,2013-03-20 17:55:00
1:15 PM,39.0,7.0,27,30.18,10.0,South,9.2,16.1,N/A,,Clear,190,2013-03-20 18:15:00
1:35 PM,40.8,7.5,25,30.16,10.0,South,8.1,-,N/A,,Clear,180,2013-03-20 18:35:00
1:55 PM,41.2,7.3,25,30.14,10.0,South,11.5,19.6,N/A,,Clear,170,2013-03-20 18:55:00
2:15 PM,42.6,8.1,24,30.12,10.0,SSW,9.2,19.6,N/A,,Clear,210,2013-03-20 19:15:00
2:35 PM,43.2,8.2,24,30.10,10.0,South,5.8,16.1,N/A,,Clear,180,2013-03-20 19:35:00
2:55 PM,44.2,8.8,24,30.08,10.0,South,10.4,16.1,N/A,,Clear,190,2013-03-20 19:55:00
3:15 PM,44.8,9.9,24,30.07,10.0,South,6.9,11.5,N/A,,Clear,170,2013-03-20 20:15:00
3:35 PM,45.5,9.5,23,30.05,10.0,SSW,12.7,18.4,N/A,,Clear,200,2013-03-20 20:35:00
3:55 PM,46.2,9.5,23,30.03,10.0,South,12.7,17.3,N/A,,Clear,170,2013-03-20 20:55:00
4:15 PM,47.1,9.5,22,30.02,10.0,South,11.5,20.7,N/A,,Clear,180,2013-03-20 21:15:00
4:35 PM,47.8,9.7,21,30.01,10.0,South,10.4,16.1,N/A,,Clear,170,2013-03-20 21:35:00
4:55 PM,47.8,10.0,22,30.00,10.0,South,11.5,20.7,N/A,,Clear,180,2013-03-20 21:55:00
5:15 PM,48.0,9.9,21,29.99,10.0,South,12.7,20.7,N/A,,Clear,180,2013-03-20 22:15:00
5:35 PM,47.8,10.0,22,29.98,10.0,SSW,15.0,20.7,N/A,,Clear,200,2013-03-20 22:35:00
5:55 PM,46.6,10.4,23,29.98,10.0,SSW,11.5,19.6,N/A,,Clear,200,2013-03-20 22:55:00
6:15 PM,46.0,10.8,24,29.97,10.0,South,12.7,18.4,N/A,,Clear,180,2013-03-20 23:15:00
6:35 PM,45.9,10.8,24,29.96,10.0,SSE,12.7,17.3,N/A,,Clear,150,2013-03-20 23:35:00
6:55 PM,45.5,10.9,25,29.95,10.0,South,13.8,-,N/A,,Clear,170,2013-03-20 23:55:00
7:15 PM,44.8,10.4,25,29.95,10.0,South,10.4,-,N/A,,Clear,170,2013-03-21 00:15:00
7:35 PM,44.1,10.6,26,29.93,10.0,South,9.2,16.1,N/A,,Clear,170,2013-03-21 00:35:00
7:55 PM,42.8,11.3,28,29.92,10.0,SSE,8.1,-,N/A,,Clear,150,2013-03-21 00:55:00
8:15 PM,41.2,11.7,30,29.92,10.0,SE,6.9,-,N/A,,Clear,140,2013-03-21 01:15:00
8:35 PM,41.0,11.8,30,29.91,10.0,SE,9.2,-,N/A,,Mostly Cloudy,130,2013-03-21 01:35:00
8:55 PM,41.0,11.8,30,29.91,10.0,SE,8.1,-,N/A,,Mostly Cloudy,140,2013-03-21 01:55:00
9:15 PM,40.1,12.4,32,29.91,10.0,ESE,8.1,-,N/A,,Mostly Cloudy,120,2013-03-21 02:15:00
9:35 PM,40.3,12.2,32,29.92,10.0,SE,10.4,-,N/A,,Mostly Cloudy,130,2013-03-21 02:35:00
9:55 PM,40.1,12.2,32,29.91,10.0,SE,12.7,-,N/A,,Overcast,130,2013-03-21 02:55:00
10:15 PM,39.7,12.2,32,29.91,10.0,SE,15.0,-,N/A,,Overcast,140,2013-03-21 03:15:00
10:35 PM,39.2,12.6,34,29.91,10.0,SE,11.5,-,N/A,,Overcast,130,2013-03-21 03:35:00
10:55 PM,38.8,13.1,35,29.91,10.0,SE,12.7,-,N/A,,Overcast,140,2013-03-21 03:55:00
11:15 PM,38.5,13.6,36,29.91,10.0,SE,12.7,16.1,N/A,,Overcast,140,2013-03-21 04:15:00
11:35 PM,38.3,14.4,38,29.90,10.0,SE,11.5,-,N/A,,Overcast,140,2013-03-21 04:35:00
11:55 PM,37.8,14.7,39,29.89,10.0,SE,12.7,-,N/A,,Overcast,130,2013-03-21 04:55:00